Regional Weather Roundup
Issued by NWS

Home | Current Version | Previous Version | Graphics & Text | Print | Product List | Glossary Off
Versions: 1 2 3 4 5 6 7 8 9 10 11 12 13 14 15 16 17 18 19 20 21 22 23 24 25 26 27 28 29 30 31 32 33 34 35 36 37 38 39 40 41 42 43 44 45 46 47 48 49 50

000
ASUS43 KDTX 221010
RWRMI
MICHIGAN HOURLY REGIONAL WEATHER ROUNDUP
NATIONAL WEATHER SERVICE DETROIT/PONTIAC MI
ISSUED BY NATIONAL WEATHER SERVICE GRAND RAPIDS MI
600 AM EDT TUE AUG 22 2017

NOTE: "FAIR" INDICATES FEW OR NO CLOUDS BELOW 12,000 FEET WITH NO
SIGNIFICANT WEATHER AND/OR OBSTRUCTION TO VISIBILITY.

MIZ047>049-052>055-059>063-066>070-074>076-081>083-221100-
SOUTHEAST LOWER MICHIGAN

CITY           SKY/WX    TMP DP  RH WIND       PRES   REMARKS
ADRIAN         LGT RAIN  71  67  87 W7        29.89F
ALMA           RAIN      72  68  88 SW13G22   29.78F
ANN ARBOR      LGT RAIN  72  69  90 S12       29.86S
BAD AXE        CLOUDY    71  65  80 S7        29.78F
DETROIT CITY   CLOUDY    76  68  76 SW17G23   29.84F
DETROIT        LGT RAIN  75  69  81 SW18      29.86S
FLINT          LGT RAIN  73  68  84 SW15G23   29.81S
GROSSE ILE     CLOUDY    76  68  75 SW13G23   29.86R
HILLSDALE      LGT RAIN  70  66  88 SW10      29.89F
HOWELL         LGT RAIN  72  68  88 SW13      29.84F

CITY           SKY/WX    TMP DP  RH WIND       PRES   REMARKS
JACKSON        PTCLDY    72  67  84 SW18G24   29.86S
LANSING        CLOUDY    73  66  78 SW16G29   29.83F
MASON          CLOUDY    73  67  79 SW13G23   29.84F
MONROE         LGT RAIN  73  69  86 SW10G18   29.87S
MT. CLEMENS    MOCLDY    77  70  79 SW15G23   29.82S
PONTIAC        CLOUDY    74  69  85 SW14G20   29.83S
PORT HOPE        N/A     74  66  76 SW6       29.74F
PORT HURON     CLOUDY    75  70  83 S6        29.82F
TRI CITIES     CLOUDY    75  71  87 SW16      29.78S
YPSILANTI      LGT RAIN  75  70  84 SW14      29.86F
$$
MIZ043>046-050>051-056>058-064>065-071>073-077>080-221100-
SOUTHWEST LOWER MICHIGAN

CITY           SKY/WX    TMP DP  RH WIND       PRES   REMARKS
BATTLE CREEK   LGT RAIN  71  68  90 SW17      29.87S
BENTON HARBOR  CLOUDY    72  67  84 SW18G28   29.85F
BIG RAPIDS     HVY RAIN  70  67  91 W7        29.75S
COLDWATER      DRIZZLE   70  70  98 SW9G18    29.89R
HOLLAND        CLOUDY    73  70  90 SW24G31   29.82S
GRAND RAPIDS   CLOUDY    72  69  90 SW21G32   29.81F
KALAMAZOO      LGT RAIN  71  66  84 SW17      29.87S
MARSHALL       LGT RAIN  71  70  96 SW12G24   29.87S
MOUNT PLEASANT CLOUDY    74  69  84 SW13      29.75S
MUSKEGON       CLOUDY    74  70  87 SW21G28   29.78F
STURGIS        LGT RAIN  70  66  89 SW14G24   29.88F
$$
MIZ016>042-221100-
NORTHERN LOWER MICHIGAN

CITY           SKY/WX    TMP DP  RH WIND       PRES   REMARKS
ALPENA         CLOUDY    72  70  93 SW6       29.69S
BEAVER ISLAND  CLOUDY    68  68  99 SW8       29.66S FOG
BELLAIRE       CLOUDY    70  68  93 CALM      29.69F
CADILLAC       CLOUDY    71  67  88 W6        29.74F
CHARLEVOIX     CLOUDY    68  68 100 SW7       29.70F
GAYLORD        CLOUDY    68  66  93 SW12      29.71F
HOUGHTON LAKE  CLOUDY    70  68  93 SW8       29.74F
MANISTEE       CLOUDY    70  68  93 W9        29.72S
OSCODA         CLOUDY    72  65  79 SW7G16    29.71F
PELLSTON       LGT RAIN  69  67  93 SW8       29.66F
TRAVERSE CITY  CLOUDY    72  67  84 SW6       29.68F
LUDINGTON      CLOUDY    70  67  90 W12G20    29.74S
$$
MIZ007>008-015-221100-
EASTERN UPPER MICHIGAN

CITY           SKY/WX    TMP DP  RH WIND       PRES   REMARKS
KINROSS        CLOUDY    68  68 100 SW5       29.64F
MACKINAC ISLAN CLOUDY    69  69 100 SW10G21   29.64F
NEWBERRY       MOCLDY    65  64  97 SW10G16   29.63S
S. S. MARIE    LGT RAIN  70  68  93 SW5       29.62S FOG
$$
MIZ004>006-011>014-085-221100-
CENTRAL UPPER MICHIGAN

CITY           SKY/WX    TMP DP  RH WIND       PRES   REMARKS
MANISTIQUE     MOCLDY    66  60  81 W5        29.64F
ESCANABA       CLOUDY    66  65  96 W9        29.66S
MENOMINEE      MOCLDY    67  63  87 VRB6      29.70S
SAWYER-GWINN   CLOUDY    59  58  94 N13       29.71R
$$
MIZ001>003-009>011-084-221100-
WESTERN UPPER MICHIGAN

CITY           SKY/WX    TMP DP  RH WIND       PRES   REMARKS
IRON MOUNTAIN  MOCLDY    64  60  87 NW13      29.70R
HOUGHTON       CLOUDY    57  54  89 N9        29.74S
COPPER HARBOR    N/A     58  55  90 N7        29.71F
IRONWOOD       CLOUDY    56  55  97 W7        29.82S
$$

ABBREVIATIONS USED IN REMARKS
   TC - TEMPERATURE IN CELSIUS
  WCI - WIND CHILL INDEX
   HX - HEAT INDEX
  VSB - VISIBILITY





USA.gov is the U.S. government's official web portal to all federal, state and local government web resources and services.